Find SBIRS GEO-4

NORAD ID: 41937 Int'l Des: 2017-004 Owner: AFSPC Country: US operational
HEOCIRCULARGSO

リアルタイム位置

3D地球を読み込み中...

SBIRS GEO-4について

説明を読み込み中...

次回通過

Passes for default location (London). Set your location on the main map for personalized predictions.

高度履歴

Loading altitude history...

軌道要素

1 41937U 17004A 26134.25176181 .00000137 00000-0 00000-0 0 9994
2 41937 2.1793 42.3097 0002141 4.8910 296.3447 1.00271803 34254
Epoch: May 14, 2026 • Age: 10 hours

現在のステータス

高度 35786.2 km
速度 3.07 km/s
衛星直下点 2.15°N, 20.93°E
打ち上げ日 Jan 21, 2017
運用期間 9.3 years
タイプ military

技術仕様

分類 Payload
質量 4500.00 kg
乾燥質量 2500.00 kg
総質量 4500.00 kg
長さ 6.00 m
直径 2.50 m
スパン 25.00 m
形状 Box + 2 Pan
製造者 LMSS
バスタイプ A2100
フェーズステータス In Orbit
所有者/国 AFSPC/US

Most Searched